Content
SEND FEEDBACK

Daily
Averages
Monthly
Summary
United Kingdom

MIDDLESBROUGH, ENGLAND


Home > Europe > United Kingdom > England
Elevation: 121 feet     Latitude: 54 31N     Longitude: 001 25W

WEATHER
 
SELECT A DAY
Number of Records: 226,300;   Date Range: 7/1/96 - 7/8/14
 
SHARE

PRINT THIS DATA

[ ← Previous Day ]
WEATHER ALMANAC - SEPTEMBER 28, 2013
[ Next Day → ]
[ °C ]   °F
Weather ElementAverageHighLow
Temperature54.9 °F64.4 °F (2:20 pm)41 °F (7:50 am)
Dewpoint46.5 °F51.8 °F (11:50 am)39.2 °F (7:50 am)
Humidity75.2 %100 % (6:20 am)49 % (3:20 pm)
Barometer29.92 in29.95 in (9:20 am)29.86 in (4:20 pm)
Wind Speed6.4 mph12.7 mph (3:50 pm)
Weather ElementAverage
Visibility2.3 mi
Wind DirectionESE (106.8 °)

Weather ElementTotal
Precipitation---
Heating Degree Days12.3 (Base 65)
Growing Degree Days2.7 (Base 50)
Averaged from 31 records on September 28, 2013
WEATHER CONDITIONS BREAKOUT
WIND DIRECTION BREAKOUT
WEATHER BY HOUR - SEPTEMBER 28, 2013
[ °C ]   °F
Local TimeTemperatureDewpointHumidityBarometerVisibilityWind DirectionWind SpeedGust SpeedPrecipitationEventsConditions
6:20 AM42.8 °F42.8 °F100 %29.92 in0.2 miCalmFogFog
6:50 AM42.8 °F41.0 °F93 %29.92 in0.2 miCalmFogFog
7:50 AM41.0 °F39.2 °F93 %29.92 in0.1 miWest (260°)1.2 mphFogFog
8:20 AM42.8 °F41.0 °F93 %29.92 in0.1 miWNW (290°)2.3 mphFogFog
8:50 AM44.6 °F42.8 °F93 %29.92 in0.2 miWNW (290°)3.5 mphFogFog
9:20 AM46.4 °F44.6 °F93 %29.95 in0.9 miWest (280°)4.6 mphMostly Cloudy
9:50 AM48.2 °F46.4 °F93 %29.95 in0.7 miVariable2.3 mphMostly Cloudy
10:20 AM50.0 °F48.2 °F94 %29.95 in0.9 miVariable1.2 mphHaze
10:50 AM51.8 °F50.0 °F94 %29.95 in1.2 miVariable1.2 mphHaze
11:20 AM55.4 °F50.0 °F82 %29.95 in2.8 miVariable2.3 mphHaze
11:50 AM55.4 °F51.8 °F88 %29.95 in3.1 miVariable3.5 mphHaze
12:20 PM57.2 °F51.8 °F82 %29.95 in3.1 miVariable3.5 mphHaze
12:50 PM59.0 °F51.8 °F77 %29.92 in3.1 miESE (120°)5.8 mphHaze
1:20 PM60.8 °F51.8 °F72 %29.92 in5.0 miESE (120°)4.6 mphPartly Cloudy
1:50 PM62.6 °F50.0 °F63 %29.92 in6.2 miESE (110°)8.1 mphPartly Cloudy
2:20 PM64.4 °F50.0 °F59 %29.89 in5.6 miESE (110°)9.2 mph
2:50 PM64.4 °F46.4 °F52 %29.89 in6.2 miSE (130°)11.5 mphPartly Cloudy
3:20 PM64.4 °F44.6 °F49 %29.89 inESE (120°)11.5 mphClear
3:50 PM64.4 °F44.6 °F49 %29.89 inSE (130°)12.7 mphClear
4:20 PM64.4 °F44.6 °F49 %29.86 inSE (140°)10.4 mphClear
4:50 PM62.6 °F44.6 °F52 %29.89 inSE (130°)11.5 mphClear
5:20 PM62.6 °F48.2 °F59 %29.89 inESE (120°)11.5 mphClear
5:50 PM60.8 °F50.0 °F68 %29.89 inESE (120°)10.4 mphClear
6:20 PM59.0 °F50.0 °F72 %29.89 inESE (120°)10.4 mphClear
6:50 PM57.2 °F48.2 °F72 %29.89 inESE (110°)9.2 mphClear
7:20 PM55.4 °F44.6 °F67 %29.89 inESE (110°)5.8 mphClear
7:50 PM51.8 °F42.8 °F71 %29.92 inESE (110°)8.1 mphClear
8:20 PM53.6 °F42.8 °F67 %29.92 inEast (80°)6.9 mphClear
8:50 PM53.6 °F44.6 °F72 %29.92 inEast (80°)8.1 mphClear
9:20 PM51.8 °F46.4 °F82 %29.92 inSE (130°)9.2 mphClear
9:50 PM51.8 °F46.4 °F82 %29.92 inEast (100°)6.9 mphClear
Hourly data recorded from EGNV, located miles away from Middlesbrough, England







STORIES FROM OUR PARTNERS